Regional Weather Roundup
Issued by NWS

Home | Current Version | Previous Version | Graphics & Text | Print | Product List | Glossary On
Versions: 1 2 3 4 5 6 7 8 9 10 11 12 13 14 15 16 17 18 19 20 21 22 23 24 25 26 27 28 29 30 31 32 33 34 35 36 37 38 39 40 41 42 43 44 45 46 47 48 49 50
000
ASUS45 KBOU 211207
RWRCO

WEATHER ROUNDUP FOR COLORADO
NATIONAL WEATHER SERVICE DENVER/BOULDER CO
600 AM MDT MON JUL 21 2014

NOTE: "FAIR" INDICATES FEW OR NO CLOUDS BELOW 12000 FEET WITH NO
SIGNIFICANT WEATHER AND/OR OBSTRUCTIONS TO VISIBILITY.

COZ001>005-013-030-031-211300-
...NORTHWEST COLORADO...

CITY           SKY/WX    TMP DP  RH WIND       PRES   REMARKS
CRAIG          CLEAR     45  45 100 CALM      30.24R
HAYDEN         CLEAR     54  43  66 E12       30.25R
MEEKER         CLEAR     50  43  77 NE3       30.25R
MOUNT WERNER   CLEAR     57  32  38 S12       30.56R
STEAMBOAT SPGS CLEAR     49  44  83 CALM      30.29R
WALDEN         PTCLDY    45  37  76 E6        30.36R
$$

COZ006>008-011-211300-
...WEST CENTRAL VALLEYS...

CITY           SKY/WX    TMP DP  RH WIND       PRES   REMARKS
GRAND JUNCTION CLEAR     64  45  49 SE12      30.13R
MONTROSE       CLEAR     60  42  51 S3        30.23R
EAGLE          CLEAR     48  45  87 CALM      30.35R
RIFLE          CLEAR     54  44  69 CALM      30.21R
DELTA          CLEAR     61  45  54 CALM      30.19R
NUCLA          CLEAR     63  34  34 E9        30.26R
$$

COZ017>023-064>068-211300-
...SOUTHWEST COLORADO...

CITY           SKY/WX    TMP DP  RH WIND       PRES   REMARKS
DURANGO        MOCLDY    59  44  57 N5        30.31R
CORTEZ         CLEAR     52  40  63 NE3       30.25R
PAGOSA SPRINGS MOCLDY    54  46  75 CALM      30.40R
TELLURIDE      PTCLDY    55  34  44 SE7       30.48S
WOLF CREEK PAS NOT AVBL
$$

COZ009-010-012-014-032>034-037-058>063-211300-
...CENTRAL COLORADO...

CITY           SKY/WX    TMP DP  RH WIND       PRES   REMARKS
ASPEN          PTCLDY    48  43  82 CALM      30.36R
BUENA VISTA    MOCLDY    54  44  69 NW9       30.40S
COPPER MTN     PTCLDY    54  34  47 S15G22    30.68S
BERTHOUD PASS  FAIR      45  32  61 W17G24    30.71R
COTTONWOOD PAS MOCLDY    61  36  39 CALM      30.53R
GUNNISON       PTCLDY    46  41  81 CALM      30.45R
KREMMLING      PTCLDY    43  41  93 CALM      30.39R FOG
LEADVILLE      PTCLDY    40  39  97 CALM      30.53R
MONARCH PASS   MOCLDY    48  36  61 W21       30.78S
SALIDA         MOCLDY   N/A N/A N/A NW10      30.44S
SUNLIGHT       CLEAR     52  37  58 CALM      30.59R
WILKERSON PASS NOT AVBL
$$

COZ069>075-211300-
...SAN LUIS VALLEY/SANGRE DE CRISTO MOUNTAINS...

CITY           SKY/WX    TMP DP  RH WIND       PRES   REMARKS
ALAMOSA        MOCLDY    56  50  80 E3        30.38R
LA VETA PASS   NOT AVBL
SAGUACHE       PTCLDY    54  43  66 NW9       30.40S
$$

COZ035-036-038>040-211300-
...NORTHERN COLORADO FRONT RANGE...

CITY           SKY/WX    TMP DP  RH WIND       PRES   REMARKS
DENVER INTL AP MOCLDY    70  44  39 SW15      30.11R
DMNS CITY PARK   N/A     67  46  46 SW3       30.12R
AURORA         MOCLDY    69  45  42 S6        30.14R
FRONT RANGE AP NOT AVBL
ERIE MUNI ARPT MOCLDY    59  49  69 CALM      30.09R
BOULDER MUN AP MOCLDY    77  41  27 SW7       30.10R
CENTENNIAL     MOCLDY    67  44  43 S9        30.15S
BROOMFIELD     MOCLDY    68  43  40 CALM      30.13R
FORT COLLINS   PTCLDY    64  48  55 CALM      30.09R
LONGMONT       PTCLDY    62  50  65 CALM      30.10R
$$

COZ041-046-047-076>085-087-088-211300-
...PIKES PEAK/PALMER DIVIDE AND SOUTHERN FOOTHILLS...

CITY           SKY/WX    TMP DP  RH WIND       PRES   REMARKS
COLO. SPRINGS  MOCLDY    65  45  48 N9        30.19R
A. F. ACADEMY  MOCLDY    73  41  31 NE3       30.22R
ELLICOTT       MOCLDY    66  49  54 CALM      30.17R
FALCON         MOCLDY    64  43  46 NW8       30.25R
FORT CARSON    MOCLDY    65  46  49 N9        30.15R
LIMON          MOCLDY    62  48  60 N5        30.12R
MONUMENT HILL  MOCLDY    64  41  42 NW8       30.25R
TRINIDAD       PTCLDY    66  47  50 W10       30.16S
$$

COZ042>045-048>051-090-091-211300-
...NORTHEAST COLORADO...

CITY           SKY/WX    TMP DP  RH WIND       PRES   REMARKS
GREELEY ARPT   PTCLDY    55  48  76 CALM      30.07R
AKRON          MOCLDY    70  48  45 W12       30.05R
BURLINGTON     MOCLDY    67  60  78 SW8       30.01S
WRAY             N/A     70  53  56 SW5       29.98R
STERLING       MOCLDY    64  59  82 SW5       30.01R
HOLYOKE        CLOUDY    73  55  53 W8        29.97R
FORT MORGAN    MOCLDY    61  52  73 W8        30.06R
$$

COZ086-089-092>099-211300-
...SOUTHEAST COLORADO...

CITY           SKY/WX    TMP DP  RH WIND       PRES   REMARKS
PUEBLO         PTCLDY    64  53  67 NW5       30.07S
LA JUNTA       PTCLDY    69  56  62 W9        30.03R
LAMAR          PTCLDY    66  63  90 S8        29.97S
SPRINGFIELD      N/A     68  63  84 SW10      30.05R
$$


USA.gov is the U.S. government's official web portal to all federal, state and local government web resources and services.